Starlink 11168

operational
NORAD ID: 60183 Int'l Des: 2024-124 Owner: SPXS Country: US Constellation: starlink
LEOCIRCULAR

About Starlink 11168

Description loading...

Live Position

Loading 3D Globe...

Upcoming Passes

Altitude History

Altitude vs Time

uPlot chart will show altitude changes over time

Two-Line Element Set

1 60183U 24124A 25349.89098788 .00002364 00000-0 24372-4 0 9998
2 60183 53.1571 214.2747 0001712 91.3762 268.7452 15.69707071 84568
Epoch: Dec 15, 2025 • Age: 23 hours

Current Status

Altitude 364.2 km
Velocity 7.69 km/s
Sub-Earth Point -15.02°S, 168.95°E
Launch Date Jul 3, 2024
Age 1.4 years
Type internet

Technical Details

Classification Payload
Mass 960.00 kg
Dry Mass 910.00 kg
Total Mass 960.00 kg
Length 0.30 m
Diameter 4.10 m
Span 29.00 m
Shape Box + pan
Manufacturer SPXS
Bus Type Starlink V2MD
Phase Status In Orbit
Owner/State SPXS/US

Large Constellations

Loading constellations...